Regional Weather Roundup
Issued by NWS Upton, NY

Current Version | Previous Version | Graphics & Text | Print | Product List | Glossary Off
Versions: 1 2 3 4 5 6 7 8 9 10 11 12 13 14 15 16 17 18 19 20 21 22 23 24 25 26 27 28 29 30 31 32 33 34 35 36 37 38 39 40 41 42 43 44 45 46 47 48 49 50

000
ASUS41 KOKX 311004
RWROKX

REGIONAL WEATHER ROUNDUP
NATIONAL WEATHER SERVICE NEW YORK NY
600 AM EDT FRI JUL 31 2015

NOTE: "FAIR" INDICATES FEW OR NO CLOUDS BELOW 12,000 FEET WITH NO
SIGNIFICANT WEATHER AND/OR OBSTRUCTIONS TO VISIBILITY.

NYZ071-072-176-178-NJZ106-104-311100-
NEW YORK CITY METRO AREA


CITY           SKY/WX    TMP DP  RH WIND       PRES   REMARKS
CENTRAL PARK   CLEAR     73  62  68 NW3       29.89R
LAGUARDIA APRT PTCLDY    75  61  61 NW8       29.85R
KENNEDY INTL   PTCLDY    74  62  66 CALM      29.86R
NEWARK/LIBERTY PTCLDY    73  61  65 W7        29.86R
BRNX BOT. GARD   N/A    N/A N/A N/A W2        29.86R
TETERBORO      CLEAR     70  61  73 NW5       29.85R
$$

NYZ177-179-078>081-311100-
LONG ISLAND NEW YORK

CITY           SKY/WX    TMP DP  RH WIND       PRES   REMARKS
FARMINGDALE    MOCLDY    72  67  84 NW5       29.85R
ISLIP          MOCLDY    71  68  90 NW5       29.83R
SHIRLEY        PTCLDY    71  69  93 CALM      29.85R FOG
WESTHAMPTON    FOG       67  67 100 CALM      29.85R VSB<1/4
MONTAUK POINT    N/A     72  71  97 CALM      29.84R
$$

NYZ052-065-067-311100-
HUDSON VALLEY

CITY           SKY/WX    TMP DP  RH WIND       PRES   REMARKS
WHITE PLAINS   PTCLDY    69  62  78 W8        29.86R
NEWBURGH       CLEAR     63  61  94 W6        29.87R
MONTGOMERY     CLEAR     62  59  90 S6        29.86S
POUGHKEEPSIE   CLEAR     63  62  97 CALM      29.84R
ALBANY         PTCLDY    69  58  67 W8        29.82R
$$

NJZ001-105-106-008-010-013-015-019>022-104-311100-
NEW JERSEY

CITY           SKY/WX    TMP DP  RH WIND       PRES   REMARKS
NEWARK/LIBERTY PTCLDY    73  61  65 W7        29.86R
TETERBORO      CLEAR     70  61  73 NW5       29.85R
CALDWELL       CLEAR     67  63  87 CALM      29.87S
MORRISTOWN     PTCLDY    64  63  94 CALM      29.87S FOG
SOMERVILLE     FOG       64  62  93 CALM      29.86R VSB 3/4
SUSSEX         FOG       60  58  92 CALM      29.88S VSB 1/2
ANDOVER          N/A     62  61  96 CALM      29.89S
TRENTON        CLEAR     68  64  87 NW3       29.87S
MILLVILLE      CLEAR     68  65  90 CALM      29.89S
ATLANTIC CITY  CLEAR     70  67  90 NW5       29.89R
WRIGHTSTOWN    NOT AVBL
TOMS RIVER       N/A     70  66  88 NW3       29.88R
BELMAR         CLEAR     70  64  83 NW5       29.87S
$$

PAZ047>061-062-071-311100-
EASTERN PENNSYLVANIA

CITY           SKY/WX    TMP DP  RH WIND       PRES   REMARKS
PHILADELPHIA   PTCLDY    70  60  70 CALM      29.89R
ALLENTOWN      CLEAR     62  58  86 SW3       29.89S
SCRANTON       CLEAR     62  57  83 CALM      29.91R
$$

CTZ002-004>006-009-010-012-RIZ004-006-007-MAZ004-011-015-311100-
SOUTHERN NEW ENGLAND
 IN CT

CITY           SKY/WX    TMP DP  RH WIND       PRES   REMARKS
BRADLEY INTL   PTCLDY    67  64  90 SW3       29.82R
HARTFORD       CLEAR     70  69  97 CALM      29.82R
DANBURY        CLEAR     65  61  87 SW3       29.87R
WTRBRY/OXFORD  CLEAR     66  59  77 CALM      29.87R
BRIDGEPORT     CLEAR     71  66  84 NW7       29.83R
MERIDEN        MOCLDY    68  65  90 CALM      29.83R FOG
NEW HAVEN      CLEAR     71  67  87 NW5       29.83R
CHESTER        DRIZZLE   70  70 100 CALM      29.85R
GROTON         FOG       69  68  96 CALM      29.82R VSB 1/4
WILLIMANTIC    FOG       68  67  96 CALM      29.83R VSB<1/4

 IN RI

CITY           SKY/WX    TMP DP  RH WIND       PRES   REMARKS
PROVIDENCE     PTCLDY    71  69  93 W8        29.81R
BLOCK ISLAND     N/A     72  72 100 W5        29.83R VSB 3/4
WESTERLY       FOG       71  70  96 W3        29.83R VSB 1/4

 IN MA

CITY           SKY/WX    TMP DP  RH WIND       PRES   REMARKS
BOSTON         PTCLDY    73  64  73 W10       29.78R
WORCESTER      CLEAR     65  63  93 W8        29.84R
WESTFIELD      FOG       62  61  96 CALM      29.82S VSB 3/4
PROVINCETOWN   MOCLDY    72  64  78 W8        29.78S
NANTUCKET      CLOUDY    72  70  93 SW7       29.80R FOG
$$

ANZ330-335-338-340-345-350-353-355-311100-
COASTAL MARINE OBSERVATIONS


STATION/POSITION TIME  SKY/WX   TEMP    WIND        PRES    VSBY  WAVE
                                AIR SEA DIR/SP/G                  HT/PER
                 (UTC)          (F)     (DEG/KT/KT) (MB)    (MI)  (FT/S)
NY HARB ENTRANCE 0850            75 76  300/ 10/ 12 1010.1          2/ 5
4S FIRE IS       NOT AVBL
20S FIRE ISLAND  0850            74 74  300/  8/ 10 1009.9          3/ 5
GREAT SOUTH BAY  0915            74 80  330/  6/  6   N/A
23SW MTP         0950            71 71  290/  8/ 10 1009.7          3/ 6
HUDSON CANYON    NOT AVBL
KINGS POINT      0900            73 71  360/  4/  6 1009.9
EXECUTION ROCKS  0900            73     290/  4/  6   N/A
CENTRAL LI SOUND NOT AVBL
EASTERN LI SOUND 0900            71 70  280/  4/  4   N/A
ROBBINS REEF     0900            77     320/  9/ 13 1009.7
$$


>>>>>>>>>>>>>>>>>>>>>>>>>>>> KEY <<<<<<<<<<<<<<<<<<<<<<<<<<<
>                                                          <
>     SKY/WX - SKY CONDITION/PRESENT WEATHER               <
>     TMP    - TEMPERATURE IN FAHRENHEIT                   <
>     DP     - DEWPOINT IN FAHRENHEIT                      <
>     RH     - RELATIVE HUMIDITY IN PERCENT                <
>     WIND   - DIRECTION AND SPEED IN MPH                  <
>     PRES   - MEAN SEA LEVEL PRESSURE IN INCHES OF HG     <
>     WCI    - WIND CHILL INDEX                            <
>     VSB    - VISIBILITY IN MILES                         <
>     HX     - HEAT INDEX                                  <
>     TC     - TEMPERATURE IN CELSIUS                      <
>     VRB    - VARIABLE WIND DIRECTION                     <
>                                                          <
>>>>>>>>>>>>>>>>>>>>>>>>>>>> KEY <<<<<<<<<<<<<<<<<<<<<<<<<<<





USA.gov is the U.S. government's official web portal to all federal, state and local government web resources and services.